Regional Weather Roundup
Issued by NWS

Home | Current Version | Previous Version | Graphics & Text | Print | Product List | Glossary Off
Versions: 1 2 3 4 5 6 7 8 9 10 11 12 13 14 15 16 17 18 19 20 21 22 23 24 25 26 27 28 29 30 31 32 33 34 35 36 37 38 39 40 41 42 43 44 45 46 47 48 49 50

000
ASUS43 KTOP 311608
RWRKS

WEATHER ROUNDUP FOR KANSAS
NATIONAL WEATHER SERVICE GOODLAND KS
1000 AM CST SAT JAN 31 2015

NOTE:  "FAIR" INDICATES FEW OR NO CLOUDS BELOW 12,000 FEET WITH NO
SIGNIFICANT WEATHER AND/OR OBSTRUCTIONS TO VISIBILITY.

KSZ001>006-013>018-027>032-041>047-311700-
NORTHWEST KANSAS

CITY           SKY/WX    TMP DP  RH WIND       PRES   REMARKS
GOODLAND       CLOUDY    36  34  92 CALM      29.88F
HAYS           CLOUDY    34  27  75 S8        30.03S
HILL CITY      CLOUDY    36  33  89 S5        29.99F FOG
RUSSELL        RAIN      33  33 100 SE9       30.04S FOG
$$

KSZ061>065-074>080-084>089-311700-
SOUTHWEST KANSAS

CITY           SKY/WX    TMP DP  RH WIND       PRES   REMARKS
DODGE CITY     LGT RAIN  35  32  88 S20       30.00F FOG     WCI  24
ELKHART          N/A     36  29  76 S17         N/A  WCI  26
GARDEN CITY    CLOUDY    35  34  96 S18G26    29.95F WCI  24
LIBERAL        CLOUDY    36  32  87 S18       30.01F WCI  25
PRATT          RAIN      34  34 100 S18G25    30.08S WCI  23
$$

KSZ066>073-081>083-090>101-311700-
SOUTHEAST KANSAS

CITY           SKY/WX    TMP DP  RH WIND       PRES   REMARKS
CHANUTE        CLOUDY    40  33  76 SE8       30.22F
COFFEYVILLE    CLOUDY    41  31  67 SE5       30.23S
HUTCHINSON     LGT RAIN  36  32  85 S13       30.11F FOG     WCI  27
MEDICINE LODGE   N/A     36  35  96 S13       30.14R WCI  27
NEWTON         CLOUDY    34  27  75 SE12      30.13F WCI  25
PARSONS        CLOUDY    42  31  64 SE6       30.23F
WICHITA INTL   LGT RAIN  36  32  85 S10       30.13F FOG     WCI  28
WICHITA JABRA  LGT RAIN  36  32  85 S9        30.13F
WICHITA MCCONL LGT RAIN  37  34  90 SE10      30.14F WCI  29
WINFIELD       LGT RAIN  38  32  79 SE8       30.17F
$$

KSZ007>012-019>026-033>040-048>060-102>105-311700-
NORTHEAST KANSAS

CITY           SKY/WX    TMP DP  RH WIND       PRES   REMARKS
CONCORDIA      LGT SNOW  33  32  96 SE12      30.10F VSB 1   WCI  24
EMPORIA        LGT RAIN  37  34  89 S17       30.18F FOG     WCI  27
LAWRENCE       CLOUDY    36  35  96 S6        30.21F FOG
MANHATTAN      LGT RAIN  37  35  92 S10       30.16F FOG     WCI  30
MARYSVILLE     LGT RAIN  32  32 100 SE8       30.15S
OLATHE IND     CLOUDY    37  36  96 SE9       30.22F
OLATHE EXE     LGT RAIN  37  37 100 SE7       30.19F
SALINA         LGT RAIN  35  32  88 SE10      30.12S FOG     WCI  27
TOPEKA BILLARD CLOUDY    38  36  92 SE6       30.21S
TOPEKA FORBES  LGT RAIN  38  36  92 S8        30.19F FOG
$$



USA.gov is the U.S. government's official web portal to all federal, state and local government web resources and services.